EW7643 Weather Reports


Display with metric or nautical units.
time (UTC)temp
F
wind
direction
speed
MPH
gust
MPH
rain 1hr
in
rain 24hr
in
rain mn
in
humidity
%
barometer
mb
20260502220020 76 335 3.0 8.0 0.00 0.38 0.01 39 1018.1
20260502214531 76 341 1.0 8.0 0.00 0.38 0.01 40 1018.2
20260502213017 77 12 1.0 6.0 0.00 0.44 0.01 40 1018.2
20260502211525 76 13 3.0 9.0 0.00 0.52 0.01 39 1018.3
20260502210026 76 341 2.0 7.0 0.00 0.64 0.01 38 1018.4
20260502204518 76 330 0.0 9.0 0.00 0.76 0.01 42 1018.2
20260502203017 76 39 2.0 11.0 0.00 0.80 0.01 40 1018.7
20260502201523 76 255 1.0 12.0 0.00 0.85 0.01 41 1018.8
20260502200019 75 5 3.0 9.0 0.00 1.33 0.01 43 1018.9
20260502194521 75 286 2.0 9.0 0.00 1.44 0.01 41 1019.1
20260502193020 75 241 1.0 9.0 0.00 2.01 0.01 44 1019.4
20260502191521 74 4 2.0 7.0 0.00 2.03 0.01 46 1019.6
20260502190027 74 337 3.0 10.0 0.00 2.04 0.01 47 1019.7
20260502184525 74 1 2.0 10.0 0.00 2.08 0.01 46 1019.9
20260502183020 74 72 1.0 9.0 0.00 2.08 0.01 47 1020.0
20260502181525 73 203 1.0 10.0 0.00 2.08 0.01 45 1020.2
20260502163019 69 130 4.0 9.0 0.01 2.95 0.01 57 1020.5
20260502161517 69 257 0.0 10.0 0.00 2.94 0.00 62 1020.4
20260502151519 65 50 2.0 10.0 0.00 2.97 0.00 72 1020.2
20260502123029 0 0.0 0.0 0.00 2.99 0.00 1018.4
20260502121522 0 0.0 0.0 0.00 2.99 0.00 1018.1
20260502114531 0 0.0 0.0 0.00 2.99 0.00 1017.9
20260502113025 0 0.0 0.0 0.00 2.99 0.00 1017.7
20260502111526 0 0.0 0.0 0.00 2.99 0.00 1017.7
20260502110026 0 0.0 0.0 0.00 2.99 0.00 1017.6
20260502104526 0 0.0 0.0 0.00 2.99 0.00 1017.4
20260502103023 0 0.0 0.0 0.00 2.99 0.00 1017.1
20260502101524 0 0.0 0.0 0.00 2.99 0.00 1016.8
20260502091523 0 0.0 0.0 0.00 2.99 0.00 1015.9
20260502071524 0 0.0 0.0 0.00 2.99 0.00 1015.8
20260502070029 0 0.0 0.0 0.00 2.99 0.00 1015.6
20260502064541 0 0.0 0.0 0.00 2.99 0.00 1015.5
20260502063028 0 0.0 0.0 0.00 2.99 0.00 1015.3
20260502061530 0 0.0 0.0 0.00 2.99 0.00 1015.2
20260502060035 0 0.0 0.0 0.00 2.99 0.00 1015.3
20260502054529 0 0.0 0.0 0.00 2.99 0.00 1015.4
20260502053029 53 2.0 8.0 0.00 3.00 0.00 67 1015.6
20260502051532 55 14 2.0 8.0 0.01 3.00 0.00 67 1015.6
20260502050026 55 283 3.0 9.0 0.01 3.00 0.00 67 1015.5
20260502044514 55 317 1.0 6.0 0.02 3.00 3.00 67 1015.5
20260502043019 55 1 1.0 9.0 0.02 3.00 3.00 67 1015.5
20260502041532 55 136 2.0 7.0 0.01 2.99 2.99 67 1015.5
20260502040024 56 36 1.0 10.0 0.01 2.99 2.99 67 1015.4
20260502034511 56 279 1.0 4.0 0.01 2.98 2.98 67 1014.9
20260502033025 56 5 0.0 5.0 0.03 2.98 2.98 67 1014.6
20260502031520 56 101 1.0 10.0 0.03 2.99 2.98 67 1014.0
20260502030023 57 53 1.0 8.0 0.04 2.99 2.98 67 1013.3
20260502024531 57 75 2.0 8.0 0.04 2.98 2.97 67 1013.6
20260502023011 58 144 0.0 7.0 0.03 2.96 2.95 67 1013.5
20260502021518 58 244 1.0 5.0 0.06 2.96 2.95 67 1013.7
20260502020020 58 208 0.0 11.0 0.06 2.95 2.94 67 1013.5
20260502014525 58 78 0.0 3.0 0.07 2.94 2.93 67 1013.2
20260502013026 58 314 0.0 6.0 0.12 2.94 2.92 67 1012.8
20260502011515 58 204 1.0 7.0 0.17 2.91 2.89 67 1012.6
20260502010025 58 342 0.0 5.0 0.22 2.92 2.88 67 1011.3
20260502004530 58 269 2.0 5.0 0.20 2.93 2.86 67 1011.0
20260502003024 58 335 2.0 7.0 0.14 2.89 2.80 67 1011.5
20260502001528 58 28 1.0 7.0 0.08 2.81 2.72 67 1011.1
20260502000019 59 350 3.0 11.0 0.02 2.75 2.66 67 1010.9
20260501234520 59 46 4.0 10.0 0.02 2.76 2.66 67 1010.8
20260501233022 59 336 1.0 7.0 0.03 2.76 2.66 66 1010.1
20260501231528 60 339 3.0 8.0 0.01 2.74 2.64 66 1010.2
20260501230028 60 321 2.0 7.0 0.01 2.74 2.64 66 1009.9
20260501224517 60 51 0.0 4.0 0.01 2.74 2.64 66 1010.7
20260501223023 60 6 2.0 8.0 0.06 2.73 2.63 66 1010.4
20260501221525 60 39 1.0 8.0 0.15 2.73 2.63 66 1010.8